Location: Waco, TX
(31.5480°N, 97.1670°W)
Time: 00:38:52
(UTC-06:00)

ISS - Pass Details

Date: 16 December 2017
Orbit: 403 x 407 km, 51.6° (Epoch: 12 December)

Event Time Altitude Azimuth Distance (km) Brightness Sun altitude
Rises 09:41:21 0° 195° (SSW) 2,306 0.5 22.7°
Reaches altitude 10° 09:43:45 10° 178° (S) 1,451 -0.1 23.0°
Maximum altitude 09:46:14 20° 128° (SE) 990 0.4 23.3°
Drops below altitude 10° 09:48:44 10° 78° (ENE) 1,459 -0.6 23.7°
Sets 09:51:09 0° 61° (ENE) 2,323 0.1 24.0°
